Location: Azul
(36.7830°S, 59.8500°W)
Time: 18:11:26
(UTC-03:00)

ISS - Pass Details

Date: 23 April 2017
Orbit: 401 x 408 km, 51.6° (Epoch: 22 October)

Event Time Altitude Azimuth Distance (km) Brightness Sun altitude
Exits shadow 05:50:54 21° 2° (N) 1,006 -1.8 -20.8°
Drops below altitude 10° 05:52:21 10° 18° (NNE) 1,498 -0.7 -20.6°
Sets 05:54:32 0° 28° (NNE) 2,350 0.4 -20.1°
